Regional Weather Roundup
Issued by NWS

Home | Current Version | Previous Version | Graphics & Text | Print | Product List | Glossary On
Versions: 1 2 3 4 5 6 7 8 9 10 11 12 13 14 15 16 17 18 19 20 21 22 23 24 25 26 27 28 29 30 31 32 33 34 35 36 37 38 39 40 41 42 43 44 45 46 47 48 49 50
000
ASUS43 KMKX 042321
RWRWI

WISCONSIN REGIONAL WEATHER ROUNDUP
NATIONAL WEATHER SERVICE MILWAUKEE/SULLIVAN WI
500 PM CST WED MAR 04 2015

NOTE: "FAIR" INDICATES FEW OR NO CLOUDS BELOW 12,000 FEET WITH NO
SIGNIFICANT WEATHER AND/OR OBSTRUCTIONS TO VISIBILITY.

WIZ001-002-006>008-014>016-023>028-050000-
NORTHWEST WISCONSIN

CITY           SKY/WX    TMP DP  RH WIND       PRES   REMARKS
SUPERIOR ARPT  CLEAR      5 -14  42 W14G21    30.26R WCI -13
ASHLAND        CLOUDY     4 -12  48 W13G23    30.22R WCI -13
HAYWARD        PTCLDY     5 -13  43 W8        30.18R WCI  -8
SIREN          CLEAR      6 -12  43 NW13G21   30.24R WCI -10
CUMBERLAND     MOCLDY     5 -11  47 NW12      30.19R WCI -11
RICE LAKE      PTCLDY     6 -10  46 W14G21    30.22R WCI -10
CHETEK         MOCLDY     8  -9  46 W5        30.20R WCI  -1
LADYSMITH      MOCLDY     7  -8  51 NW12      30.18R WCI  -8
EAU CLAIRE     CLEAR      9 -10  42 NW17G25   30.21R WCI  -9
MENOMONIE      CLEAR     10  -9  41 NW13G18   30.23R WCI  -5
NEW RICHMOND   PTCLDY     7  -9  48 NW13G20   30.24R WCI  -9
OSCEOLA        CLEAR      8 -10  43 NW15G23   30.29R WCI -10
$$

WIZ003>005-009-010-017-018-050000-
NORTH CENTRAL WISCONSIN

CITY           SKY/WX    TMP DP  RH WIND       PRES   REMARKS
MANITOWISH WTR CLOUDY     1  -8  66 NW12G20   30.09R HAZE    WCI -16
ARBOR VITAE    PTCLDY     4 -10  51 NW14      30.09R WCI -13
WOODRUFF       PTCLDY     4 -10  51 NW14      30.09R WCI -13
RHINELANDER    CLOUDY     4 -11  50 NW12G24   30.08R WCI -12
EAGLE RIVER    LGT SNOW   2  -7  65 NW13      30.07R WCI -15
LAND O LAKES   CLOUDY     4  -7  60 NW9G16    30.07R WCI -11
PHILLIPS       MOCLDY     4 -11  50 W5        30.12R WCI  -6
TOMAHAWK       PTCLDY     6 -11  46 NW14G21   30.11R WCI -12
MEDFORD        CLEAR      6 -11  44 NW15G21   30.11R WCI -11
MERRILL        PTCLDY     8 -11  40 NW9G18    30.11R WCI  -5
$$

WIZ029-030-035-036-043>047-050000-
CENTRAL WISCONSIN

CITY           SKY/WX    TMP DP  RH WIND       PRES   REMARKS
WAUSAU         CLEAR      8 -11  41 NW21G26   30.11R WCI -12
MOSINEE        PTCLDY     9  -9  43 W18G24    30.14R WCI -10
MARSHFIELD     PTCLDY     8  -9  45 NW14      30.15R WCI  -8
STEVENS POINT  CLEAR      8 -11  41 W12G18    30.16R WCI  -7
WAUPACA        CLEAR     14 -10  33 NW14G20   30.17R WCI  -1
WAUTOMA        CLEAR     13  -9  37 NW15G22   30.17R WCI  -3
WISC RAPIDS    CLEAR     11  -9  40 NW14      30.17R WCI  -5
CAMP DOUGLAS   PTCLDY    14  -4  44 W15       30.18R WCI  -1
$$

WIZ011>013-019>022-031-037>040-048>050-050000-
NORTHEAST WISCONSIN

CITY           SKY/WX    TMP DP  RH WIND       PRES   REMARKS
ANTIGO         PTCLDY     6 -11  45 W18G24    30.07R WCI -13
SHAWANO        CLEAR     14 -12  30 W12G18    30.14R WCI   1
OCONTO         PTCLDY    13 -11  34 W12G17    30.14R WCI  -1
STURGEON BAY   CLEAR     10  -8  44 NW8       30.14R WCI  -1
GREEN BAY      CLEAR     12  -7  42 W14       30.15R WCI  -3
MANITOWOC      CLEAR     13  -8  39 NW24G31   30.15R WCI  -7
APPLETON       PTCLDY    12 -11  34 W18G28    30.15R WCI  -5
CLINTONVILLE   CLEAR     12 -11  34 W16       30.16R WCI  -4
OSHKOSH        CLEAR     14  -6  40 NW10      30.15R WCI   1
$$

WIZ032>034-041-042-053>061-050000-
SOUTHWEST WISCONSIN

CITY           SKY/WX    TMP DP  RH WIND       PRES   REMARKS
LA CROSSE      PTCLDY    14  -4  44 NW16      30.24S WCI  -2
SPARTA         MOCLDY    14  -4  45 NW9G18    30.22R WCI   2
VIROQUA        PTCLDY    11  -4  49 W15       30.18S WCI  -5
BOSCOBEL       CLEAR     16  -4  41 W12       30.24S WCI   3
PRAIRIE DU CHI CLEAR     14  -3  46 W15       30.26S WCI  -2
PLATTEVILLE    CLEAR     13  -1  54 W17       30.21S WCI  -4
$$

WIZ056-057-062-063-064-067-068-050000-
SOUTH CENTRAL WISCONSIN

CITY           SKY/WX    TMP DP  RH WIND       PRES   REMARKS
REEDSBURG      CLEAR     14  -4  44 W15G21    30.20R WCI  -1
BARABOO/DELLS  CLEAR     14  -7  38 W14G20    30.19R WCI  -1
LONE ROCK      CLEAR     16  -5  39 NW16      30.22S WCI   1
MINERAL POINT  CLEAR     18  -4  38 W16       30.17F WCI   3
MADISON        PTCLDY    16  -6  37 NW13      30.18R WCI   2
MIDDLETON      CLEAR     18  -7  33 NW12      30.17F WCI   5
WATERTOWN      CLEAR     16  -4  40 W14       30.17S WCI   2
MONROE         CLEAR     16   0  48 W15G22    30.17F WCI   1
JANESVILLE     CLEAR     18   0  45 W10       30.19R WCI   6
$$

WIZ051-052-058>065-066-070>072-050000-
SOUTHEAST WISCONSIN

CITY           SKY/WX    TMP DP  RH WIND       PRES   REMARKS
MILWAUKEE      PTCLDY    19  -7  31 NW16G29   30.16S WCI   4
WAUKESHA       PTCLDY    16  -4  41 W17G23    30.16F WCI   0
MILWAUKEE/TIMM CLEAR     18  -8  32 W15G24    30.17R WCI   3
RACINE         PTCLDY    19  -3  38 W13G21    30.18S WCI   6
BURLINGTON     CLEAR     15  -5  40 NW15      30.18R WCI   0
KENOSHA        CLEAR     17  -3  41 NW17      30.17R WCI   1
FOND DU LAC    CLEAR     15  -6  39 NW17      30.16R WCI  -1
SHEBOYGAN      CLEAR     14  -5  42 NW14      30.15R WCI  -1
WEST BEND      CLEAR     18  -8  32 W13G22    30.14F WCI   4
JUNEAU         CLEAR     14  -6  39 W9G23     30.17R WCI   2
$$

LSZ147-162-050000-
LAKE SUPERIOR

STATION/POSITION TIME  TEMP    WIND        PRES    WAVE
                       AIR SEA DIR/SP/G            HT/PER
                 (UTC) (F)     (DEG/KT/KT) (MB)    (FT/S)
DEVILS ISLAND    2200    5     290/ 18/ 22 1023.7R
PORT WING        2240    5     280/ 12/ 18 1023.7R
SAXON HARBOR     2240    6     300/  9/ 17 1022.7R
$$

LMZ867-665-643>646-050000-
LAKE MICHIGAN

STATION/POSITION TIME  TEMP    WIND        PRES    WAVE
                       AIR SEA DIR/SP/G            HT/PER
                 (UTC) (F)     (DEG/KT/KT) (MB)    (FT/S)
NORTHPORT PIER   2209   13     300/ 14/ 22 1018.6R
SISTER BAY       2243   14     320/ 17/ 20   N/A
KEWAUNEE LAKESHO 2300   13     280/ 14/ 20 1019.8R
SHEBOYGAN LAKESH 2200   15     300/ 15/ 20 1022.6R
PORT WASHINGTON  2240   18     290/ 12/ 21 1021.7R
MILWAUKEE LAKESH 2300   18     290/ 16/ 24   N/A
KENOSHA   LAKESH 2200   19     300/ 11/ 19 1021.7R
$$

TC  - TEMPERATURE IN CELSIUS
VSB - VISIBILITY IN STATUTE MILES
WCI - WIND CHILL INDEX
HX  - HEAT INDEX



USA.gov is the U.S. government's official web portal to all federal, state and local government web resources and services.